Time,TemperatureF,DewpointF,PressureIn,WindDirection,WindDirectionDegrees,WindSpeedMPH,WindSpeedGustMPH,Humidity,HourlyPrecipIn,Conditions,Clouds,dailyrainin,SoftwareType,DateUTC
2013-08-22 00:01:00,83.4,77.3,30.09,WSW,238,3.0,3.0,82,0.00,,,0.00,Wunderground v.1.15,2013-08-22 04:01:00,
2013-08-22 00:02:00,83.3,77.2,30.09,SW,228,0.0,3.0,82,0.00,,,0.00,Wunderground v.1.15,2013-08-22 04:02:00,
2013-08-22 00:04:00,83.0,76.6,30.08,SW,219,2.0,5.0,81,0.00,,,0.01,Wunderground v.1.15,2013-08-22 04:04:00,
2013-08-22 00:05:00,82.8,76.7,30.08,SW,232,0.0,5.0,82,0.00,,,0.01,Wunderground v.1.15,2013-08-22 04:05:00,
2013-08-22 00:07:00,82.5,76.8,30.08,WSW,256,0.0,5.0,83,0.00,,,0.01,Wunderground v.1.15,2013-08-22 04:07:00,
2013-08-22 00:12:00,81.7,76.7,30.08,WSW,252,0.0,1.0,85,0.00,,,0.01,Wunderground v.1.15,2013-08-22 04:12:00,
2013-08-22 00:18:00,81.2,77.0,30.08,West,269,0.0,1.0,87,0.00,,,0.01,Wunderground v.1.15,2013-08-22 04:18:00,
2013-08-22 00:24:00,81.0,77.1,30.08,West,269,0.0,0.0,88,0.00,,,0.01,Wunderground v.1.15,2013-08-22 04:24:00,
2013-08-22 00:29:00,80.8,76.9,30.07,West,269,0.0,0.0,88,0.00,,,0.01,Wunderground v.1.15,2013-08-22 04:29:00,
2013-08-22 00:35:00,80.7,77.5,30.08,SE,138,3.0,4.0,90,2.87,,,0.08,Wunderground v.1.15,2013-08-22 04:35:00,
2013-08-22 00:41:00,80.1,76.2,30.07,ENE,77,0.0,3.0,88,0.13,,,0.13,Wunderground v.1.15,2013-08-22 04:41:00,
2013-08-22 00:47:00,79.8,75.6,30.07,SW,221,0.0,3.0,87,0.10,,,0.14,Wunderground v.1.15,2013-08-22 04:47:00,
2013-08-22 00:52:00,79.6,75.0,30.07,ESE,117,3.0,3.0,86,0.06,,,0.14,Wunderground v.1.15,2013-08-22 04:52:00,
2013-08-22 00:58:00,79.3,75.1,30.07,ESE,112,0.0,3.0,87,0.04,,,0.14,Wunderground v.1.15,2013-08-22 04:58:00,
2013-08-22 01:04:00,79.1,75.2,30.07,East,101,2.0,2.0,88,0.00,,,0.14,Wunderground v.1.15,2013-08-22 05:04:00,
2013-08-22 01:09:00,78.9,75.4,30.07,SE,124,2.0,2.0,89,0.00,,,0.15,Wunderground v.1.15,2013-08-22 05:09:00,
2013-08-22 01:15:00,78.7,75.2,30.07,ESE,117,1.0,2.0,89,0.10,,,0.16,Wunderground v.1.15,2013-08-22 05:15:00,
2013-08-22 01:21:00,78.5,75.3,30.07,ENE,68,0.0,0.0,90,0.07,,,0.16,Wunderground v.1.15,2013-08-22 05:21:00,
2013-08-22 01:27:00,78.4,75.6,30.06,ESE,108,0.0,0.0,91,0.04,,,0.16,Wunderground v.1.15,2013-08-22 05:27:00,
2013-08-22 01:32:00,78.3,75.5,30.06,East,94,0.0,0.0,91,0.00,,,0.16,Wunderground v.1.15,2013-08-22 05:32:00,
2013-08-22 01:38:00,78.4,75.9,30.07,SE,132,5.0,5.0,92,0.00,,,0.16,Wunderground v.1.15,2013-08-22 05:38:00,
2013-08-22 01:44:00,78.2,75.4,30.07,East,99,2.0,5.0,91,0.33,,,0.18,Wunderground v.1.15,2013-08-22 05:44:00,
2013-08-22 01:49:00,78.2,75.7,30.06,East,81,0.0,5.0,92,0.16,,,0.19,Wunderground v.1.15,2013-08-22 05:49:00,
2013-08-22 01:55:00,78.1,75.9,30.06,NE,51,2.0,4.0,93,0.06,,,0.19,Wunderground v.1.15,2013-08-22 05:55:00,
2013-08-22 02:00:00,78.0,75.8,30.06,ENE,57,0.0,1.0,93,0.04,,,0.19,Wunderground v.1.15,2013-08-22 06:00:00,
2013-08-22 02:05:00,77.8,75.6,30.06,East,89,0.0,1.0,93,0.00,,,0.19,Wunderground v.1.15,2013-08-22 06:05:00,
2013-08-22 02:10:00,77.6,75.4,30.06,East,87,0.0,0.0,93,0.00,,,0.19,Wunderground v.1.15,2013-08-22 06:10:00,
2013-08-22 02:15:00,77.4,75.2,30.05,East,89,0.0,0.0,93,0.00,,,0.19,Wunderground v.1.15,2013-08-22 06:15:00,
2013-08-22 02:20:00,77.3,75.1,30.06,East,89,0.0,0.0,93,0.00,,,0.19,Wunderground v.1.15,2013-08-22 06:20:00,
2013-08-22 02:25:00,77.2,75.0,30.05,East,89,0.0,0.0,93,0.00,,,0.19,Wunderground v.1.15,2013-08-22 06:25:00,
2013-08-22 02:30:00,77.0,74.8,30.05,East,89,0.0,0.0,93,0.00,,,0.19,Wunderground v.1.15,2013-08-22 06:30:00,
2013-08-22 02:35:00,76.9,74.7,30.05,East,89,0.0,0.0,93,0.00,,,0.19,Wunderground v.1.15,2013-08-22 06:35:00,
2013-08-22 02:40:00,76.8,74.9,30.05,East,88,0.0,0.0,94,0.00,,,0.19,Wunderground v.1.15,2013-08-22 06:40:00,
2013-08-22 02:45:00,76.9,75.0,30.05,East,89,0.0,0.0,94,0.00,,,0.19,Wunderground v.1.15,2013-08-22 06:45:00,
2013-08-22 02:50:00,76.9,75.0,30.04,East,87,0.0,0.0,94,0.00,,,0.19,Wunderground v.1.15,2013-08-22 06:50:00,
2013-08-22 02:55:00,77.0,75.1,30.04,East,89,0.0,0.0,94,0.00,,,0.19,Wunderground v.1.15,2013-08-22 06:55:00,
2013-08-22 03:00:00,77.1,75.2,30.04,East,89,0.0,0.0,94,0.00,,,0.19,Wunderground v.1.15,2013-08-22 07:00:00,
2013-08-22 03:05:00,77.2,75.3,30.04,East,89,0.0,0.0,94,0.00,,,0.19,Wunderground v.1.15,2013-08-22 07:05:00,
2013-08-22 03:11:00,77.3,75.4,30.04,East,89,0.0,0.0,94,0.00,,,0.19,Wunderground v.1.15,2013-08-22 07:11:00,
2013-08-22 03:16:00,77.4,75.9,30.04,East,94,0.0,0.0,95,0.00,,,0.19,Wunderground v.1.15,2013-08-22 07:16:00,
2013-08-22 03:21:00,77.4,75.9,30.04,East,95,0.0,0.0,95,0.00,,,0.19,Wunderground v.1.15,2013-08-22 07:21:00,
2013-08-22 03:26:00,77.5,76.0,30.04,East,95,0.0,0.0,95,0.00,,,0.19,Wunderground v.1.15,2013-08-22 07:26:00,
2013-08-22 03:31:00,77.7,76.2,30.04,East,94,0.0,0.0,95,0.00,,,0.19,Wunderground v.1.15,2013-08-22 07:31:00,
2013-08-22 03:36:00,77.8,76.3,30.04,East,94,0.0,0.0,95,0.00,,,0.19,Wunderground v.1.15,2013-08-22 07:36:00,
2013-08-22 03:41:00,77.8,76.3,30.04,East,94,0.0,0.0,95,0.00,,,0.19,Wunderground v.1.15,2013-08-22 07:41:00,
2013-08-22 03:46:00,77.9,76.4,30.04,East,94,0.0,0.0,95,0.00,,,0.19,Wunderground v.1.15,2013-08-22 07:46:00,
2013-08-22 03:51:00,78.1,76.6,30.04,East,94,0.0,0.0,95,0.00,,,0.19,Wunderground v.1.15,2013-08-22 07:51:00,
2013-08-22 03:56:00,78.2,76.6,30.04,East,94,0.0,0.0,95,0.00,,,0.19,Wunderground v.1.15,2013-08-22 07:56:00,
2013-08-22 04:01:00,78.3,77.1,30.04,East,96,0.0,0.0,96,0.00,,,0.19,Wunderground v.1.15,2013-08-22 08:01:00,
2013-08-22 04:06:00,78.5,77.3,30.03,East,96,0.0,0.0,96,0.00,,,0.19,Wunderground v.1.15,2013-08-22 08:06:00,
2013-08-22 04:11:00,78.6,77.0,30.03,East,96,0.0,0.0,95,0.00,,,0.19,Wunderground v.1.15,2013-08-22 08:11:00,
2013-08-22 04:16:00,78.7,77.5,30.03,East,96,0.0,0.0,96,0.00,,,0.19,Wunderground v.1.15,2013-08-22 08:16:00,
2013-08-22 04:21:00,78.7,77.1,30.03,East,96,0.0,0.0,95,0.00,,,0.19,Wunderground v.1.15,2013-08-22 08:21:00,
2013-08-22 04:26:00,78.7,77.5,30.03,East,96,0.0,0.0,96,0.00,,,0.19,Wunderground v.1.15,2013-08-22 08:26:00,
2013-08-22 04:31:00,78.8,77.2,30.03,East,96,0.0,0.0,95,0.00,,,0.19,Wunderground v.1.15,2013-08-22 08:31:00,
2013-08-22 04:36:00,78.8,77.2,30.03,East,97,0.0,0.0,95,0.00,,,0.19,Wunderground v.1.15,2013-08-22 08:36:00,
2013-08-22 04:41:00,78.8,77.6,30.03,ESE,119,0.0,1.0,96,0.00,,,0.19,Wunderground v.1.15,2013-08-22 08:41:00,
2013-08-22 04:46:00,79.0,77.4,30.02,ESE,108,0.0,1.0,95,0.00,,,0.19,Wunderground v.1.15,2013-08-22 08:46:00,
2013-08-22 04:51:00,79.1,77.5,30.02,ESE,108,1.0,1.0,95,0.00,,,0.19,Wunderground v.1.15,2013-08-22 08:51:00,
2013-08-22 04:57:00,79.1,77.5,30.02,East,93,0.0,1.0,95,0.00,,,0.19,Wunderground v.1.15,2013-08-22 08:57:00,
2013-08-22 05:02:00,79.1,77.5,30.02,East,98,0.0,1.0,95,0.00,,,0.19,Wunderground v.1.15,2013-08-22 09:02:00,
2013-08-22 05:07:00,79.2,77.6,30.02,East,101,0.0,1.0,95,0.00,,,0.19,Wunderground v.1.15,2013-08-22 09:07:00,
2013-08-22 05:12:00,79.2,77.6,30.02,ESE,116,0.0,1.0,95,0.00,,,0.19,Wunderground v.1.15,2013-08-22 09:12:00,
2013-08-22 05:17:00,79.3,77.7,30.02,East,101,0.0,2.0,95,0.00,,,0.19,Wunderground v.1.15,2013-08-22 09:17:00,
2013-08-22 05:22:00,79.4,77.8,30.02,East,100,0.0,1.0,95,0.00,,,0.19,Wunderground v.1.15,2013-08-22 09:22:00,
2013-08-22 05:27:00,79.6,78.0,30.02,East,97,0.0,3.0,95,0.00,,,0.19,Wunderground v.1.15,2013-08-22 09:27:00,
2013-08-22 05:32:00,79.7,78.1,30.02,ESE,122,0.0,0.0,95,0.00,,,0.19,Wunderground v.1.15,2013-08-22 09:32:00,
2013-08-22 05:37:00,79.7,77.8,30.02,ESE,122,0.0,3.0,94,0.00,,,0.20,Wunderground v.1.15,2013-08-22 09:37:00,
2013-08-22 05:42:00,79.7,77.8,30.02,ESE,121,0.0,1.0,94,0.00,,,0.20,Wunderground v.1.15,2013-08-22 09:42:00,
2013-08-22 05:47:00,79.8,77.9,30.02,ESE,112,1.0,4.0,94,0.00,,,0.20,Wunderground v.1.15,2013-08-22 09:47:00,
2013-08-22 05:52:00,79.8,77.9,30.03,ESE,122,0.0,2.0,94,0.00,,,0.20,Wunderground v.1.15,2013-08-22 09:52:00,
2013-08-22 05:57:00,79.8,77.6,30.03,ESE,108,0.0,2.0,93,0.00,,,0.20,Wunderground v.1.15,2013-08-22 09:57:00,
2013-08-22 06:02:00,79.9,77.7,30.03,East,91,0.0,2.0,93,0.00,,,0.20,Wunderground v.1.15,2013-08-22 10:02:00,
2013-08-22 06:07:00,79.8,77.6,30.02,East,93,0.0,2.0,93,0.00,,,0.20,Wunderground v.1.15,2013-08-22 10:07:00,
2013-08-22 06:12:00,79.7,77.5,30.03,East,93,0.0,0.0,93,0.00,,,0.20,Wunderground v.1.15,2013-08-22 10:12:00,
2013-08-22 06:17:00,79.6,77.4,30.02,East,93,0.0,1.0,93,0.00,,,0.20,Wunderground v.1.15,2013-08-22 10:17:00,
2013-08-22 06:22:00,79.6,77.4,30.02,East,93,0.0,1.0,93,0.00,,,0.20,Wunderground v.1.15,2013-08-22 10:22:00,
2013-08-22 06:27:00,79.4,77.2,30.02,East,94,0.0,1.0,93,0.00,,,0.20,Wunderground v.1.15,2013-08-22 10:27:00,
2013-08-22 06:32:00,79.4,77.5,30.02,East,94,0.0,0.0,94,0.00,,,0.20,Wunderground v.1.15,2013-08-22 10:32:00,
2013-08-22 06:37:00,79.4,77.5,30.03,East,94,0.0,1.0,94,0.00,,,0.20,Wunderground v.1.15,2013-08-22 10:37:00,
2013-08-22 06:42:00,79.3,77.4,30.03,East,94,1.0,1.0,94,0.00,,,0.20,Wunderground v.1.15,2013-08-22 10:42:00,
2013-08-22 06:48:00,79.4,77.5,30.02,ESE,106,0.0,3.0,94,0.00,,,0.20,Wunderground v.1.15,2013-08-22 10:48:00,
2013-08-22 08:27:00,83.4,78.8,30.05,East,98,0.0,4.0,86,0.00,,,0.20,Wunderground v.1.15,2013-08-22 12:27:00,
2013-08-22 08:32:00,83.7,78.7,30.06,East,91,2.0,5.0,85,0.00,,,0.20,Wunderground v.1.15,2013-08-22 12:32:00,
2013-08-22 08:37:00,84.2,78.8,30.06,ESE,106,0.0,5.0,84,0.00,,,0.20,Wunderground v.1.15,2013-08-22 12:37:00,
2013-08-22 08:42:00,84.5,78.8,30.06,ENE,75,1.0,6.0,83,0.00,,,0.20,Wunderground v.1.15,2013-08-22 12:42:00,
2013-08-22 08:47:00,84.5,78.8,30.06,ENE,60,5.0,6.0,83,0.00,,,0.20,Wunderground v.1.15,2013-08-22 12:47:00,
2013-08-22 08:52:00,84.7,78.6,30.06,ESE,108,6.0,7.0,82,0.00,,,0.20,Wunderground v.1.15,2013-08-22 12:52:00,
2013-08-22 08:57:00,84.7,78.6,30.06,ESE,103,2.0,7.0,82,0.00,,,0.20,Wunderground v.1.15,2013-08-22 12:57:00,
2013-08-22 09:00:00,84.7,78.6,30.06,ESE,108,1.0,2.0,82,0.00,,,0.20,Wunderground v.1.15,2013-08-22 13:00:00,
2013-08-22 09:05:00,85.3,79.2,30.06,East,87,1.0,5.0,82,0.00,,,0.20,Wunderground v.1.15,2013-08-22 13:05:00,
2013-08-22 09:10:00,85.5,78.6,30.06,SE,125,1.0,2.0,80,0.00,,,0.20,Wunderground v.1.15,2013-08-22 13:10:00,
2013-08-22 09:15:00,85.4,78.5,30.06,East,101,1.0,11.0,80,0.00,,,0.20,Wunderground v.1.15,2013-08-22 13:15:00,
2013-08-22 09:20:00,85.5,78.6,30.06,ESE,108,3.0,5.0,80,0.00,,,0.20,Wunderground v.1.15,2013-08-22 13:20:00,
2013-08-22 09:25:00,86.1,78.8,30.06,East,86,4.0,6.0,79,0.00,,,0.20,Wunderground v.1.15,2013-08-22 13:25:00,
2013-08-22 09:30:00,86.3,78.6,30.06,ESE,120,4.0,10.0,78,0.00,,,0.20,Wunderground v.1.15,2013-08-22 13:30:00,
2013-08-22 09:35:00,86.4,78.3,30.06,ENE,68,5.0,10.0,77,0.00,,,0.20,Wunderground v.1.15,2013-08-22 13:35:00,
2013-08-22 09:40:00,86.4,78.7,30.06,ENE,77,0.0,2.0,78,0.00,,,0.20,Wunderground v.1.15,2013-08-22 13:40:00,
2013-08-22 09:45:00,87.0,78.1,30.06,NNE,19,1.0,8.0,75,0.00,,,0.20,Wunderground v.1.15,2013-08-22 13:45:00,
2013-08-22 09:50:00,87.4,78.1,30.06,East,82,3.0,6.0,74,0.00,,,0.20,Wunderground v.1.15,2013-08-22 13:50:00,
2013-08-22 09:55:00,87.3,78.8,30.06,East,80,4.0,7.0,76,0.00,,,0.20,Wunderground v.1.15,2013-08-22 13:55:00,
2013-08-22 10:00:00,87.1,79.0,30.06,ESE,115,3.0,3.0,77,0.00,,,0.20,Wunderground v.1.15,2013-08-22 14:00:00,
2013-08-22 10:05:00,87.4,78.9,30.06,ESE,108,2.0,9.0,76,0.00,,,0.20,Wunderground v.1.15,2013-08-22 14:05:00,
2013-08-22 10:10:00,87.6,78.3,30.06,East,89,4.0,5.0,74,0.00,,,0.20,Wunderground v.1.15,2013-08-22 14:10:00,
2013-08-22 10:15:00,87.8,78.5,30.06,East,96,0.0,6.0,74,0.00,,,0.20,Wunderground v.1.15,2013-08-22 14:15:00,
2013-08-22 10:20:00,87.4,78.5,30.06,ESE,103,7.0,8.0,75,0.00,,,0.20,Wunderground v.1.15,2013-08-22 14:20:00,
2013-08-22 10:25:00,87.3,78.0,30.07,SE,124,3.0,11.0,74,0.00,,,0.20,Wunderground v.1.15,2013-08-22 14:25:00,
2013-08-22 10:30:00,87.6,78.3,30.07,ESE,120,4.0,7.0,74,0.00,,,0.20,Wunderground v.1.15,2013-08-22 14:30:00,
2013-08-22 10:36:00,87.7,78.4,30.06,ENE,76,3.0,12.0,74,0.00,,,0.20,Wunderground v.1.15,2013-08-22 14:36:00,
2013-08-22 10:41:00,87.9,79.0,30.06,SE,129,2.0,7.0,75,0.00,,,0.20,Wunderground v.1.15,2013-08-22 14:41:00,
2013-08-22 10:46:00,88.2,79.3,30.07,East,94,4.0,8.0,75,0.00,,,0.20,Wunderground v.1.15,2013-08-22 14:46:00,
2013-08-22 10:51:00,88.2,78.9,30.07,ENE,77,1.0,5.0,74,0.00,,,0.20,Wunderground v.1.15,2013-08-22 14:51:00,
2013-08-22 10:56:00,87.9,79.0,30.07,SE,132,0.0,6.0,75,0.00,,,0.20,Wunderground v.1.15,2013-08-22 14:56:00,
2013-08-22 11:01:00,88.2,79.3,30.07,ENE,68,3.0,4.0,75,0.00,,,0.20,Wunderground v.1.15,2013-08-22 15:01:00,
2013-08-22 11:06:00,88.6,79.2,30.07,ENE,65,0.0,8.0,74,0.00,,,0.20,Wunderground v.1.15,2013-08-22 15:06:00,
2013-08-22 11:11:00,89.1,78.9,30.07,SE,143,5.0,10.0,72,0.00,,,0.20,Wunderground v.1.15,2013-08-22 15:11:00,
2013-08-22 11:16:00,89.1,79.3,30.07,East,82,0.0,10.0,73,0.00,,,0.20,Wunderground v.1.15,2013-08-22 15:16:00,
2013-08-22 11:21:00,89.4,79.2,30.07,ESE,102,0.0,5.0,72,0.00,,,0.20,Wunderground v.1.15,2013-08-22 15:21:00,
2013-08-22 11:26:00,89.5,79.7,30.07,ESE,121,2.0,10.0,73,0.00,,,0.20,Wunderground v.1.15,2013-08-22 15:26:00,
2013-08-22 11:31:00,89.6,79.4,30.07,ESE,109,2.0,8.0,72,0.00,,,0.20,Wunderground v.1.15,2013-08-22 15:31:00,
2013-08-22 11:36:00,89.3,78.7,30.07,ENE,71,1.0,11.0,71,0.00,,,0.20,Wunderground v.1.15,2013-08-22 15:36:00,
2013-08-22 11:41:00,89.2,79.0,30.06,East,101,5.0,7.0,72,0.00,,,0.20,Wunderground v.1.15,2013-08-22 15:41:00,
2013-08-22 11:46:00,89.5,78.8,30.06,East,84,5.0,9.0,71,0.00,,,0.20,Wunderground v.1.15,2013-08-22 15:46:00,
2013-08-22 11:51:00,89.7,79.5,30.06,SE,128,0.0,7.0,72,0.00,,,0.20,Wunderground v.1.15,2013-08-22 15:51:00,
2013-08-22 11:56:00,89.7,78.6,30.06,East,82,2.0,8.0,70,0.00,,,0.20,Wunderground v.1.15,2013-08-22 15:56:00,
2013-08-22 12:01:00,89.7,79.0,30.06,East,82,5.0,7.0,71,0.00,,,0.20,Wunderground v.1.15,2013-08-22 16:01:00,
2013-08-22 12:06:00,89.6,79.4,30.05,East,93,4.0,8.0,72,0.00,,,0.20,Wunderground v.1.15,2013-08-22 16:06:00,
2013-08-22 12:11:00,89.8,78.7,30.06,ENE,60,3.0,8.0,70,0.00,,,0.20,Wunderground v.1.15,2013-08-22 16:11:00,
2013-08-22 12:16:00,90.0,79.3,30.06,ESE,121,6.0,8.0,71,0.00,,,0.20,Wunderground v.1.15,2013-08-22 16:16:00,
2013-08-22 12:21:00,90.0,78.9,30.06,SSE,147,1.0,4.0,70,0.00,,,0.20,Wunderground v.1.15,2013-08-22 16:21:00,
2013-08-22 12:26:00,90.3,78.7,30.06,SE,143,0.0,10.0,69,0.00,,,0.20,Wunderground v.1.15,2013-08-22 16:26:00,
2013-08-22 12:31:00,90.2,78.2,30.06,ENE,65,5.0,9.0,68,0.00,,,0.20,Wunderground v.1.15,2013-08-22 16:31:00,
2013-08-22 12:36:00,89.3,78.7,30.06,NE,46,4.0,9.0,71,0.00,,,0.20,Wunderground v.1.15,2013-08-22 16:36:00,
2013-08-22 12:41:00,88.8,78.6,30.06,SE,134,4.0,9.0,72,0.00,,,0.20,Wunderground v.1.15,2013-08-22 16:41:00,
2013-08-22 12:46:00,88.3,78.5,30.06,East,85,2.0,9.0,73,0.00,,,0.20,Wunderground v.1.15,2013-08-22 16:46:00,
2013-08-22 12:51:00,87.9,79.0,30.05,East,84,2.0,6.0,75,0.00,,,0.20,Wunderground v.1.15,2013-08-22 16:51:00,
2013-08-22 12:56:00,87.5,78.6,30.05,NW,308,0.0,9.0,75,0.00,,,0.20,Wunderground v.1.15,2013-08-22 16:56:00,
2013-08-22 13:01:00,88.1,79.2,30.05,NE,56,4.0,10.0,75,0.00,,,0.20,Wunderground v.1.15,2013-08-22 17:01:00,
2013-08-22 13:07:00,88.5,77.9,30.04,East,100,6.0,10.0,71,0.00,,,0.20,Wunderground v.1.15,2013-08-22 17:07:00,
2013-08-22 13:12:00,89.4,78.8,30.04,ENE,68,3.0,8.0,71,0.00,,,0.20,Wunderground v.1.15,2013-08-22 17:12:00,
2013-08-22 13:17:00,89.8,78.7,30.04,SE,126,3.0,9.0,70,0.00,,,0.20,Wunderground v.1.15,2013-08-22 17:17:00,
2013-08-22 13:22:00,90.4,79.3,30.04,East,95,3.0,12.0,70,0.00,,,0.20,Wunderground v.1.15,2013-08-22 17:22:00,
2013-08-22 13:27:00,90.0,78.9,30.04,ESE,109,4.0,12.0,70,0.00,,,0.20,Wunderground v.1.15,2013-08-22 17:27:00,
2013-08-22 13:32:00,89.8,79.1,30.04,SSW,193,0.0,7.0,71,0.00,,,0.20,Wunderground v.1.15,2013-08-22 17:32:00,
2013-08-22 13:37:00,90.5,79.4,30.04,ENE,70,6.0,10.0,70,0.00,,,0.20,Wunderground v.1.15,2013-08-22 17:37:00,
2013-08-22 13:42:00,89.7,77.7,30.04,NNE,15,4.0,12.0,68,0.00,,,0.20,Wunderground v.1.15,2013-08-22 17:42:00,
2013-08-22 13:47:00,89.3,78.2,30.03,ENE,76,7.0,12.0,70,0.00,,,0.20,Wunderground v.1.15,2013-08-22 17:47:00,
2013-08-22 13:52:00,89.2,78.6,30.03,ENE,70,2.0,10.0,71,0.00,,,0.20,Wunderground v.1.15,2013-08-22 17:52:00,
2013-08-22 13:57:00,89.6,78.9,30.03,ENE,76,0.0,11.0,71,0.00,,,0.20,Wunderground v.1.15,2013-08-22 17:57:00,
2013-08-22 14:02:00,90.6,78.1,30.03,SE,124,1.0,9.0,67,0.00,,,0.20,Wunderground v.1.15,2013-08-22 18:02:00,
2013-08-22 14:07:00,90.6,78.1,30.03,East,91,1.0,9.0,67,0.00,,,0.20,Wunderground v.1.15,2013-08-22 18:07:00,
2013-08-22 14:12:00,90.7,79.6,30.03,ENE,64,4.0,6.0,70,0.00,,,0.20,Wunderground v.1.15,2013-08-22 18:12:00,
2013-08-22 14:17:00,89.7,78.6,30.03,ESE,109,5.0,12.0,70,0.00,,,0.20,Wunderground v.1.15,2013-08-22 18:17:00,
2013-08-22 14:22:00,89.2,79.0,30.02,East,96,5.0,10.0,72,0.00,,,0.20,Wunderground v.1.15,2013-08-22 18:22:00,
2013-08-22 14:27:00,88.5,78.7,30.03,East,82,1.0,13.0,73,0.00,,,0.20,Wunderground v.1.15,2013-08-22 18:27:00,
2013-08-22 14:32:00,88.2,78.4,30.02,East,85,3.0,7.0,73,0.00,,,0.20,Wunderground v.1.15,2013-08-22 18:32:00,
2013-08-22 14:37:00,88.8,78.2,30.02,East,90,3.0,13.0,71,0.00,,,0.20,Wunderground v.1.15,2013-08-22 18:37:00,
2013-08-22 14:42:00,89.4,78.3,30.02,ESE,111,6.0,8.0,70,0.00,,,0.20,Wunderground v.1.15,2013-08-22 18:42:00,
2013-08-22 14:47:00,89.3,79.1,30.02,WNW,302,3.0,12.0,72,0.00,,,0.20,Wunderground v.1.15,2013-08-22 18:47:00,
2013-08-22 14:52:00,89.3,79.5,30.02,ESE,104,11.0,11.0,73,0.00,,,0.20,Wunderground v.1.15,2013-08-22 18:52:00,
2013-08-22 14:57:00,89.5,79.7,30.02,SE,139,8.0,11.0,73,0.00,,,0.20,Wunderground v.1.15,2013-08-22 18:57:00,
2013-08-22 15:02:00,89.9,79.7,30.01,East,95,6.0,8.0,72,0.00,,,0.20,Wunderground v.1.15,2013-08-22 19:02:00,
2013-08-22 15:07:00,89.5,79.7,30.01,East,93,4.0,13.0,73,0.00,,,0.20,Wunderground v.1.15,2013-08-22 19:07:00,
2013-08-22 15:12:00,89.6,79.4,30.01,ENE,77,6.0,8.0,72,0.00,,,0.20,Wunderground v.1.15,2013-08-22 19:12:00,
2013-08-22 15:17:00,89.7,79.0,30.01,SE,124,6.0,11.0,71,0.00,,,0.20,Wunderground v.1.15,2013-08-22 19:17:00,
2013-08-22 15:22:00,90.1,79.8,30.00,East,91,2.0,5.0,72,0.00,,,0.20,Wunderground v.1.15,2013-08-22 19:22:00,
2013-08-22 15:27:00,89.9,79.2,30.00,East,90,2.0,10.0,71,0.00,,,0.20,Wunderground v.1.15,2013-08-22 19:27:00,
2013-08-22 15:32:00,89.9,79.7,30.00,ENE,76,8.0,10.0,72,0.00,,,0.20,Wunderground v.1.15,2013-08-22 19:32:00,
2013-08-22 15:37:00,89.1,79.3,30.00,ESE,122,0.0,10.0,73,0.00,,,0.20,Wunderground v.1.15,2013-08-22 19:37:00,
2013-08-22 15:42:00,88.9,79.1,30.00,SE,129,3.0,6.0,73,0.00,,,0.20,Wunderground v.1.15,2013-08-22 19:42:00,
2013-08-22 15:47:00,89.0,79.2,29.99,ENE,71,1.0,8.0,73,0.00,,,0.20,Wunderground v.1.15,2013-08-22 19:47:00,
2013-08-22 15:52:00,89.4,80.0,29.99,SE,138,4.0,6.0,74,0.00,,,0.20,Wunderground v.1.15,2013-08-22 19:52:00,
2013-08-22 15:57:00,89.7,79.5,29.99,ESE,120,9.0,9.0,72,0.00,,,0.20,Wunderground v.1.15,2013-08-22 19:57:00,
2013-08-22 16:02:00,89.9,79.2,29.99,East,82,6.0,10.0,71,0.00,,,0.20,Wunderground v.1.15,2013-08-22 20:02:00,
2013-08-22 16:07:00,89.5,78.8,29.99,ESE,122,2.0,10.0,71,0.00,,,0.20,Wunderground v.1.15,2013-08-22 20:07:00,
2013-08-22 16:12:00,89.6,79.8,29.99,ENE,71,3.0,6.0,73,0.00,,,0.20,Wunderground v.1.15,2013-08-22 20:12:00,
2013-08-22 16:17:00,89.4,79.6,29.99,ENE,73,3.0,9.0,73,0.00,,,0.20,Wunderground v.1.15,2013-08-22 20:17:00,
2013-08-22 16:22:00,89.3,78.7,29.99,East,94,8.0,9.0,71,0.00,,,0.20,Wunderground v.1.15,2013-08-22 20:22:00,
2013-08-22 16:27:00,89.1,78.9,29.99,SSW,204,0.0,10.0,72,0.00,,,0.20,Wunderground v.1.15,2013-08-22 20:27:00,
2013-08-22 16:32:00,89.3,79.1,29.99,East,79,0.0,9.0,72,0.00,,,0.20,Wunderground v.1.15,2013-08-22 20:32:00,
2013-08-22 16:37:00,89.1,79.3,29.99,ESE,115,2.0,9.0,73,0.00,,,0.20,Wunderground v.1.15,2013-08-22 20:37:00,
2013-08-22 16:42:00,89.4,78.3,29.99,East,90,8.0,10.0,70,0.00,,,0.20,Wunderground v.1.15,2013-08-22 20:42:00,
2013-08-22 16:47:00,89.4,77.9,29.99,ENE,77,7.0,11.0,69,0.00,,,0.20,Wunderground v.1.15,2013-08-22 20:47:00,
2013-08-22 16:52:00,89.5,78.0,29.98,ESE,107,8.0,8.0,69,0.00,,,0.20,Wunderground v.1.15,2013-08-22 20:52:00,
2013-08-22 16:57:00,89.9,78.4,29.98,ESE,109,2.0,9.0,69,0.00,,,0.20,Wunderground v.1.15,2013-08-22 20:57:00,
2013-08-22 17:02:00,90.0,78.9,29.98,East,93,2.0,8.0,70,0.00,,,0.20,Wunderground v.1.15,2013-08-22 21:02:00,
2013-08-22 17:07:00,90.3,78.7,29.98,ENE,78,6.0,10.0,69,0.00,,,0.20,Wunderground v.1.15,2013-08-22 21:07:00,
2013-08-22 17:12:00,89.7,78.6,29.98,ESE,113,7.0,7.0,70,0.00,,,0.20,Wunderground v.1.15,2013-08-22 21:12:00,
2013-08-22 17:17:00,89.5,78.8,29.99,East,89,5.0,10.0,71,0.00,,,0.20,Wunderground v.1.15,2013-08-22 21:17:00,
2013-08-22 17:22:00,89.1,78.9,29.99,East,88,1.0,8.0,72,0.00,,,0.20,Wunderground v.1.15,2013-08-22 21:22:00,
2013-08-22 17:27:00,88.8,78.6,29.98,ESE,111,1.0,9.0,72,0.00,,,0.20,Wunderground v.1.15,2013-08-22 21:27:00,
2013-08-22 17:32:00,88.7,78.5,29.99,NE,53,5.0,7.0,72,0.00,,,0.20,Wunderground v.1.15,2013-08-22 21:32:00,
2013-08-22 17:37:00,88.2,78.4,29.99,ENE,74,2.0,10.0,73,0.00,,,0.20,Wunderground v.1.15,2013-08-22 21:37:00,
2013-08-22 17:42:00,87.7,78.4,29.98,ENE,59,3.0,10.0,74,0.00,,,0.20,Wunderground v.1.15,2013-08-22 21:42:00,
2013-08-22 17:48:00,87.3,78.8,29.98,East,91,2.0,10.0,76,0.00,,,0.20,Wunderground v.1.15,2013-08-22 21:48:00,
2013-08-22 17:53:00,86.5,78.8,29.98,East,93,6.0,6.0,78,0.00,,,0.20,Wunderground v.1.15,2013-08-22 21:53:00,
2013-08-22 17:59:00,86.1,78.8,29.98,East,84,3.0,7.0,79,0.00,,,0.20,Wunderground v.1.15,2013-08-22 21:59:00,
2013-08-22 18:04:00,86.0,78.7,29.97,ESE,108,0.0,5.0,79,0.00,,,0.20,Wunderground v.1.15,2013-08-22 22:04:00,
2013-08-22 18:09:00,86.0,78.3,29.97,ESE,121,3.0,5.0,78,0.00,,,0.20,Wunderground v.1.15,2013-08-22 22:09:00,
2013-08-22 18:14:00,86.1,78.4,29.97,East,93,0.0,8.0,78,0.00,,,0.20,Wunderground v.1.15,2013-08-22 22:14:00,
2013-08-22 18:19:00,86.7,78.2,29.97,ESE,103,1.0,10.0,76,0.00,,,0.20,Wunderground v.1.15,2013-08-22 22:19:00,
2013-08-22 18:24:00,87.1,78.6,29.97,ESE,108,4.0,6.0,76,0.00,,,0.20,Wunderground v.1.15,2013-08-22 22:24:00,
2013-08-22 18:29:00,86.9,77.6,29.97,East,91,2.0,11.0,74,0.00,,,0.20,Wunderground v.1.15,2013-08-22 22:29:00,
2013-08-22 18:34:00,86.3,77.4,29.97,NE,40,3.0,8.0,75,0.00,,,0.20,Wunderground v.1.15,2013-08-22 22:34:00,
2013-08-22 18:39:00,86.0,77.5,29.97,ENE,70,3.0,8.0,76,0.00,,,0.20,Wunderground v.1.15,2013-08-22 22:39:00,
2013-08-22 18:44:00,85.9,77.5,29.97,East,94,2.0,8.0,76,0.00,,,0.20,Wunderground v.1.15,2013-08-22 22:44:00,
2013-08-22 18:49:00,86.0,77.5,29.97,NE,46,1.0,8.0,76,0.00,,,0.20,Wunderground v.1.15,2013-08-22 22:49:00,
2013-08-22 18:54:00,85.9,77.1,29.98,East,84,0.0,5.0,75,0.00,,,0.20,Wunderground v.1.15,2013-08-22 22:54:00,
2013-08-22 18:59:00,85.7,76.9,29.98,ENE,77,4.0,8.0,75,0.00,,,0.20,Wunderground v.1.15,2013-08-22 22:59:00,
2013-08-22 19:04:00,85.6,77.6,29.98,East,96,0.0,7.0,77,0.00,,,0.20,Wunderground v.1.15,2013-08-22 23:04:00,
2013-08-22 19:09:00,85.4,77.4,29.98,ENE,74,4.0,9.0,77,0.00,,,0.20,Wunderground v.1.15,2013-08-22 23:09:00,
2013-08-22 19:14:00,85.3,77.3,29.98,East,96,4.0,8.0,77,0.00,,,0.20,Wunderground v.1.15,2013-08-22 23:14:00,
2013-08-22 19:19:00,85.2,77.6,29.98,ENE,75,0.0,8.0,78,0.00,,,0.20,Wunderground v.1.15,2013-08-22 23:19:00,
2013-08-22 19:24:00,85.1,77.5,29.98,East,86,4.0,6.0,78,0.00,,,0.20,Wunderground v.1.15,2013-08-22 23:24:00,
2013-08-22 19:29:00,84.9,77.3,29.98,East,79,1.0,6.0,78,0.00,,,0.20,Wunderground v.1.15,2013-08-22 23:29:00,
2013-08-22 19:34:00,84.9,77.7,29.99,ESE,121,0.0,5.0,79,0.00,,,0.20,Wunderground v.1.15,2013-08-22 23:34:00,
2013-08-22 19:39:00,84.8,77.6,29.99,North,359,1.0,7.0,79,0.00,,,0.20,Wunderground v.1.15,2013-08-22 23:39:00,
2013-08-22 19:44:00,84.7,77.5,29.99,ENE,75,0.0,7.0,79,0.00,,,0.20,Wunderground v.1.15,2013-08-22 23:44:00,
2013-08-22 19:49:00,84.5,77.3,30.00,ENE,77,0.0,7.0,79,0.00,,,0.20,Wunderground v.1.15,2013-08-22 23:49:00,
2013-08-22 19:54:00,84.4,77.6,30.00,East,94,0.0,6.0,80,0.00,,,0.20,Wunderground v.1.15,2013-08-22 23:54:00,
2013-08-22 19:59:00,84.3,77.5,30.00,SE,132,0.0,6.0,80,0.00,,,0.20,Wunderground v.1.15,2013-08-22 23:59:00,
2013-08-22 20:04:00,84.3,77.5,30.00,ESE,104,0.0,3.0,80,0.00,,,0.20,Wunderground v.1.15,2013-08-23 00:04:00,
2013-08-22 20:09:00,84.2,77.7,30.00,East,89,3.0,5.0,81,0.00,,,0.20,Wunderground v.1.15,2013-08-23 00:09:00,
2013-08-22 20:14:00,84.1,77.6,30.00,East,86,3.0,4.0,81,0.00,,,0.20,Wunderground v.1.15,2013-08-23 00:14:00,
2013-08-22 20:19:00,84.1,77.6,30.01,East,95,5.0,7.0,81,0.00,,,0.20,Wunderground v.1.15,2013-08-23 00:19:00,
2013-08-22 20:24:00,84.1,77.6,30.01,East,84,0.0,4.0,81,0.00,,,0.20,Wunderground v.1.15,2013-08-23 00:24:00,
2013-08-22 20:29:00,84.1,77.6,30.01,East,96,0.0,5.0,81,0.00,,,0.20,Wunderground v.1.15,2013-08-23 00:29:00,
2013-08-22 20:35:00,84.0,77.5,30.01,East,90,0.0,7.0,81,0.00,,,0.20,Wunderground v.1.15,2013-08-23 00:35:00,
2013-08-22 20:40:00,83.9,77.8,30.01,ESE,109,0.0,1.0,82,0.00,,,0.20,Wunderground v.1.15,2013-08-23 00:40:00,
2013-08-22 20:45:00,83.9,77.8,30.01,ESE,106,7.0,7.0,82,0.00,,,0.20,Wunderground v.1.15,2013-08-23 00:45:00,
2013-08-22 20:50:00,83.9,77.8,30.02,East,91,4.0,4.0,82,0.00,,,0.20,Wunderground v.1.15,2013-08-23 00:50:00,
2013-08-22 20:55:00,83.9,77.8,30.02,East,98,2.0,6.0,82,0.00,,,0.20,Wunderground v.1.15,2013-08-23 00:55:00,
2013-08-22 21:00:00,83.9,77.4,30.01,East,96,2.0,3.0,81,0.00,,,0.20,Wunderground v.1.15,2013-08-23 01:00:00,
2013-08-22 21:05:00,83.9,77.4,30.01,East,79,4.0,7.0,81,0.00,,,0.20,Wunderground v.1.15,2013-08-23 01:05:00,
2013-08-22 21:10:00,83.9,77.4,30.02,East,86,4.0,5.0,81,0.00,,,0.20,Wunderground v.1.15,2013-08-23 01:10:00,
2013-08-22 21:15:00,84.0,77.5,30.02,East,88,0.0,6.0,81,0.00,,,0.20,Wunderground v.1.15,2013-08-23 01:15:00,
2013-08-22 21:21:00,83.9,77.1,30.01,East,84,0.0,4.0,80,0.00,,,0.20,Wunderground v.1.15,2013-08-23 01:21:00,
2013-08-22 21:26:00,83.8,77.0,30.01,East,89,2.0,6.0,80,0.00,,,0.20,Wunderground v.1.15,2013-08-23 01:26:00,
2013-08-22 21:31:00,83.7,76.5,30.01,East,80,0.0,3.0,79,0.00,,,0.20,Wunderground v.1.15,2013-08-23 01:31:00,
2013-08-22 21:36:00,83.7,76.5,30.01,East,98,0.0,5.0,79,0.00,,,0.20,Wunderground v.1.15,2013-08-23 01:36:00,
2013-08-22 21:41:00,83.7,76.5,30.01,SSE,165,0.0,4.0,79,0.00,,,0.20,Wunderground v.1.15,2013-08-23 01:41:00,
2013-08-22 21:46:00,83.7,76.9,30.01,East,87,1.0,4.0,80,0.00,,,0.20,Wunderground v.1.15,2013-08-23 01:46:00,
2013-08-22 21:51:00,83.6,76.8,30.01,East,91,0.0,1.0,80,0.00,,,0.20,Wunderground v.1.15,2013-08-23 01:51:00,
2013-08-22 21:56:00,83.6,76.8,30.02,East,98,3.0,6.0,80,0.00,,,0.20,Wunderground v.1.15,2013-08-23 01:56:00,
2013-08-22 22:01:00,83.6,76.8,30.01,ESE,110,0.0,4.0,80,0.00,,,0.20,Wunderground v.1.15,2013-08-23 02:01:00,
2013-08-22 22:06:00,83.6,76.8,30.02,ENE,69,1.0,5.0,80,0.00,,,0.20,Wunderground v.1.15,2013-08-23 02:06:00,
2013-08-22 22:11:00,83.6,76.8,30.02,ESE,114,1.0,2.0,80,0.00,,,0.20,Wunderground v.1.15,2013-08-23 02:11:00,
2013-08-22 22:16:00,83.5,76.7,30.02,East,89,2.0,3.0,80,0.00,,,0.20,Wunderground v.1.15,2013-08-23 02:16:00,
2013-08-22 22:21:00,83.4,76.6,30.03,ESE,106,0.0,1.0,80,0.00,,,0.20,Wunderground v.1.15,2013-08-23 02:21:00,
2013-08-22 22:26:00,83.4,75.8,30.03,East,82,0.0,7.0,78,0.00,,,0.20,Wunderground v.1.15,2013-08-23 02:26:00,
2013-08-22 22:31:00,83.5,75.9,30.03,ESE,114,1.0,2.0,78,0.00,,,0.20,Wunderground v.1.15,2013-08-23 02:31:00,
2013-08-22 22:36:00,83.5,75.9,30.03,ESE,103,0.0,6.0,78,0.00,,,0.20,Wunderground v.1.15,2013-08-23 02:36:00,
2013-08-22 22:41:00,83.5,75.9,30.03,East,89,0.0,2.0,78,0.00,,,0.20,Wunderground v.1.15,2013-08-23 02:41:00,
2013-08-22 22:46:00,83.4,75.4,30.03,East,101,0.0,3.0,77,0.00,,,0.20,Wunderground v.1.15,2013-08-23 02:46:00,
2013-08-22 22:51:00,83.4,75.8,30.03,East,101,0.0,1.0,78,0.00,,,0.20,Wunderground v.1.15,2013-08-23 02:51:00,
2013-08-22 22:57:00,83.3,75.7,30.03,East,86,1.0,3.0,78,0.00,,,0.20,Wunderground v.1.15,2013-08-23 02:57:00,
2013-08-22 23:02:00,83.2,75.6,30.03,East,98,0.0,1.0,78,0.00,,,0.20,Wunderground v.1.15,2013-08-23 03:02:00,
2013-08-22 23:07:00,83.0,75.8,30.03,ESE,113,0.0,3.0,79,0.00,,,0.20,Wunderground v.1.15,2013-08-23 03:07:00,
2013-08-22 23:12:00,83.0,75.8,30.03,ESE,112,0.0,0.0,79,0.00,,,0.20,Wunderground v.1.15,2013-08-23 03:12:00,
2013-08-22 23:17:00,82.9,75.7,30.03,East,97,0.0,1.0,79,0.00,,,0.20,Wunderground v.1.15,2013-08-23 03:17:00,
2013-08-22 23:22:00,82.8,75.6,30.03,East,101,0.0,1.0,79,0.00,,,0.20,Wunderground v.1.15,2013-08-23 03:22:00,
2013-08-22 23:27:00,82.6,75.4,30.03,ESE,115,0.0,2.0,79,0.00,,,0.20,Wunderground v.1.15,2013-08-23 03:27:00,
2013-08-22 23:32:00,82.7,75.5,30.03,East,89,1.0,2.0,79,0.00,,,0.20,Wunderground v.1.15,2013-08-23 03:32:00,
2013-08-22 23:37:00,82.6,75.8,30.03,East,80,0.0,3.0,80,0.00,,,0.20,Wunderground v.1.15,2013-08-23 03:37:00,
2013-08-22 23:42:00,82.5,75.7,30.03,East,79,0.0,0.0,80,0.00,,,0.20,Wunderground v.1.15,2013-08-23 03:42:00,
2013-08-22 23:47:00,82.5,75.7,30.03,East,91,0.0,1.0,80,0.00,,,0.20,Wunderground v.1.15,2013-08-23 03:47:00,
2013-08-22 23:52:00,82.4,75.6,30.02,ESE,110,0.0,1.0,80,0.00,,,0.20,Wunderground v.1.15,2013-08-23 03:52:00,
2013-08-22 23:57:00,82.4,75.6,30.02,ESE,110,0.0,2.0,80,0.00,,,0.20,Wunderground v.1.15,2013-08-23 03:57:00,